| time (UTC) | temp F | wind direction | speed MPH | gust MPH | rain 1hr in | rain 24hr in | rain mn in | humidity % | barometer mb |
| 20260506090059 | 51 | 157 | 8.0 | 15.0 | 0.00 | 0.00 | 0.00 | 94 | 1012.6 |
| 20260506084551 | 51 | 153 | 6.0 | 13.0 | 0.00 | 0.00 | 0.00 | 94 | 1012.5 |
| 20260506083043 | 51 | 186 | 5.0 | 12.0 | 0.00 | 0.00 | 0.00 | 94 | 1012.5 |
| 20260506081543 | 51 | 159 | 7.0 | 13.0 | 0.00 | 0.00 | 0.00 | 94 | 1012.4 |
| 20260506073035 | 52 | 210 | 6.0 | 17.0 | 0.00 | 0.00 | 0.00 | 93 | 1011.9 |
| 20260506071532 | 52 | 182 | 8.0 | 18.0 | 0.00 | 0.00 | 0.00 | 92 | 1011.9 |
| 20260506061528 | 53 | 146 | 7.0 | 17.0 | 0.00 | 0.00 | 0.00 | 91 | 1011.6 |
| 20260506044525 | 54 | 207 | 5.0 | 13.0 | 0.00 | 0.00 | 0.00 | 89 | 1011.4 |
| 20260506043024 | 54 | 178 | 6.0 | 10.0 | 0.00 | 0.00 | 0.00 | 88 | 1011.1 |
| 20260506041535 | 55 | 196 | 6.0 | 10.0 | 0.00 | 0.00 | 0.00 | 88 | 1011.0 |
| 20260506040023 | 55 | 157 | 6.0 | 10.0 | 0.00 | 0.00 | 0.00 | 88 | 1010.8 |
| 20260506034533 | 56 | 209 | 6.0 | 11.0 | 0.00 | 0.00 | 0.00 | 87 | 1010.6 |
| 20260506033023 | 57 | 182 | 5.0 | 9.0 | 0.00 | 0.00 | 0.00 | 86 | 1010.5 |
| 20260506031522 | 58 | 215 | 3.0 | 10.0 | 0.00 | 0.00 | 0.00 | 85 | 1010.4 |
| 20260506030021 | 59 | 215 | 2.0 | 10.0 | 0.00 | 0.00 | 0.00 | 82 | 1010.3 |
| 20260506024520 | 60 | 214 | 3.0 | 10.0 | 0.00 | 0.00 | 0.00 | 81 | 1010.4 |
| 20260506023020 | 60 | 191 | 5.0 | 12.0 | 0.00 | 0.00 | 0.00 | 81 | 1010.2 |
| 20260506021520 | 60 | 222 | 5.0 | 11.0 | 0.00 | 0.00 | 0.00 | 80 | 1010.4 |
| 20260506020021 | 60 | 208 | 5.0 | 11.0 | 0.00 | 0.00 | 0.00 | 80 | 1010.4 |
| 20260506014522 | 60 | 188 | 6.0 | 13.0 | 0.00 | 0.00 | 0.00 | 79 | 1010.5 |
| 20260506013035 | 61 | 57 | 5.0 | 11.0 | 0.00 | 0.00 | 0.00 | 79 | 1010.5 |
| 20260506011524 | 61 | 184 | 7.0 | 10.0 | 0.00 | 0.00 | 0.00 | 78 | 1010.5 |
| 20260506010022 | 61 | 213 | 5.0 | 10.0 | 0.00 | 0.00 | 0.00 | 79 | 1010.5 |
| 20260506004518 | 61 | 197 | 6.0 | 12.0 | 0.00 | 0.00 | 0.00 | 78 | 1010.6 |
| 20260506003016 | 61 | 215 | 5.0 | 11.0 | 0.00 | 0.00 | 0.00 | 79 | 1010.6 |
| 20260506001517 | 62 | 192 | 7.0 | 13.0 | 0.00 | 0.00 | 0.00 | 77 | 1010.7 |
| 20260506000016 | 62 | 236 | 8.0 | 14.0 | 0.00 | 0.00 | 0.00 | 78 | 1010.9 |
| 20260505234516 | 61 | 232 | 6.0 | 14.0 | 0.00 | 0.00 | 0.00 | 78 | 1010.9 |
| 20260505233024 | 62 | 250 | 6.0 | 13.0 | 0.00 | 0.00 | 0.00 | 79 | 1010.9 |
| 20260505231514 | 63 | 246 | 7.0 | 15.0 | 0.00 | 0.00 | 0.00 | 78 | 1011.2 |
| 20260505230013 | 62 | 167 | 5.0 | 16.0 | 0.00 | 0.00 | 0.00 | 79 | 1011.4 |
| 20260505224513 | 62 | 189 | 6.0 | 14.0 | 0.00 | 0.00 | 0.00 | 80 | 1011.5 |
| 20260505223011 | 62 | 192 | 6.0 | 13.0 | 0.00 | 0.00 | 0.00 | 79 | 1011.6 |
| 20260505221511 | 61 | 195 | 7.0 | 14.0 | 0.00 | 0.00 | 0.00 | 80 | 1011.7 |
| 20260505220027 | 62 | 258 | 6.0 | 14.0 | 0.00 | 0.00 | 0.00 | 80 | 1011.8 |
| 20260505214559 | 61 | 249 | 7.0 | 13.0 | 0.00 | 0.00 | 0.00 | 81 | 1011.7 |
| 20260505213055 | 61 | 228 | 6.0 | 13.0 | 0.00 | 0.00 | 0.00 | 81 | 1011.9 |
| 20260505211602 | 61 | 222 | 4.0 | 12.0 | 0.00 | 0.00 | 0.00 | 82 | 1012.0 |
| 20260505210101 | 60 | 229 | 8.0 | 13.0 | 0.00 | 0.00 | 0.00 | 82 | 1012.1 |
| 20260505204551 | 61 | 236 | 7.0 | 14.0 | 0.00 | 0.00 | 0.00 | 82 | 1012.1 |
| 20260505203055 | 59 | 196 | 6.0 | 14.0 | 0.00 | 0.00 | 0.00 | 84 | 1012.0 |
| 20260505201550 | 60 | 182 | 4.0 | 14.0 | 0.00 | 0.00 | 0.00 | 83 | 1012.2 |
| 20260505200050 | 59 | 236 | 5.0 | 12.0 | 0.00 | 0.00 | 0.00 | 84 | 1012.1 |
| 20260505194547 | 58 | 238 | 8.0 | 17.0 | 0.00 | 0.00 | 0.00 | 84 | 1012.2 |
| 20260505193058 | 59 | 182 | 6.0 | 15.0 | 0.00 | 0.00 | 0.00 | 85 | 1012.1 |
| 20260505191546 | 59 | 236 | 7.0 | 16.0 | 0.00 | 0.00 | 0.00 | 84 | 1012.2 |
| 20260505190044 | 58 | 204 | 7.0 | 12.0 | 0.00 | 0.00 | 0.00 | 85 | 1012.1 |
| 20260505184541 | 58 | 173 | 10.0 | 15.0 | 0.00 | 0.00 | 0.00 | 85 | 1012.1 |
| 20260505183033 | 57 | 184 | 7.0 | 17.0 | 0.00 | 0.00 | 0.00 | 87 | 1012.1 |
| 20260505181525 | 57 | 242 | 7.0 | 13.0 | 0.00 | 0.00 | 0.00 | 88 | 1012.1 |
| 20260505180022 | 56 | 253 | 8.0 | 12.0 | 0.00 | 0.00 | 0.00 | 89 | 1011.9 |
| 20260505174519 | 56 | 169 | 6.0 | 16.0 | 0.00 | 0.00 | 0.00 | 90 | 1011.9 |
| 20260505173017 | 56 | 208 | 7.0 | 13.0 | 0.00 | 0.00 | 0.00 | 91 | 1011.9 |
| 20260505171516 | 55 | 182 | 5.0 | 15.0 | 0.00 | 0.00 | 0.00 | 91 | 1011.9 |
| 20260505170114 | 55 | 213 | 6.0 | 11.0 | 0.00 | 0.00 | 0.00 | 93 | 1011.9 |
| 20260505164549 | 54 | 158 | 6.0 | 16.0 | 0.00 | 0.00 | 0.00 | 93 | 1011.8 |
| 20260505163045 | 53 | 146 | 8.0 | 13.0 | 0.00 | 0.00 | 0.00 | 94 | 1011.7 |
| 20260505161528 | 53 | 206 | 7.0 | 13.0 | 0.00 | 0.00 | 0.00 | 94 | 1011.7 |
| 20260505160108 | 53 | 200 | 6.0 | 14.0 | 0.00 | 0.00 | 0.00 | 95 | 1011.7 |
| 20260505153022 | 53 | 194 | 5.0 | 14.0 | 0.00 | 0.00 | 0.00 | 95 | 1011.7 |
| 20260505151518 | 52 | 189 | 8.0 | 15.0 | 0.00 | 0.00 | 0.00 | 95 | 1011.5 |
| 20260505130111 | 51 | 186 | 7.0 | 16.0 | 0.00 | 0.00 | 0.00 | 95 | 1009.9 |
| 20260505124553 | 51 | 161 | 7.0 | 19.0 | 0.00 | 0.00 | 0.00 | 94 | 1009.8 |
| 20260505123054 | 51 | 175 | 6.0 | 18.0 | 0.00 | 0.00 | 0.00 | 94 | 1009.5 |
| 20260505121548 | 51 | 186 | 7.0 | 14.0 | 0.00 | 0.00 | 0.00 | 94 | 1009.3 |
| 20260505120046 | 51 | 198 | 9.0 | 18.0 | 0.00 | 0.00 | 0.00 | 93 | 1009.0 |
| 20260505114543 | 51 | 202 | 6.0 | 14.0 | 0.00 | 0.00 | 0.00 | 93 | 1008.9 |
| 20260505113042 | 52 | 179 | 6.0 | 14.0 | 0.00 | 0.00 | 0.00 | 92 | 1008.7 |
| 20260505111540 | 52 | 163 | 7.0 | 15.0 | 0.00 | 0.00 | 0.00 | 91 | 1008.6 |
| 20260505101533 | 54 | 180 | 8.0 | 16.0 | 0.00 | 0.00 | 0.00 | 87 | 1008.1 |
| 20260505100026 | 54 | 176 | 6.0 | 17.0 | 0.00 | 0.00 | 0.00 | 86 | 1007.9 |
| 20260505094525 | 54 | 200 | 6.0 | 17.0 | 0.00 | 0.00 | 0.00 | 86 | 1007.8 |
| 20260505093024 | 54 | 150 | 7.0 | 14.0 | 0.00 | 0.00 | 0.00 | 85 | 1007.7 |
| 20260505091523 | 55 | 155 | 9.0 | 19.0 | 0.00 | 0.00 | 0.00 | 83 | 1007.7 |